Skip Page Navigation
NASA JPL Caltech
NASA Logo - Jet Propulsion Laboratory + View the NASA Portal
+ Near-Earth Object (NEO) Program
Search JPL
JPL Home Earth Solar System Stars & Galaxies Technology
JPL Solar System Dynamics
BODIES ORBITS EPHEMERIDES TOOLS PHYSICAL DATA DISCOVERY FAQ SITE MAP
JPL Small-Body Database Browser
Search: [ help ]  
23637 (1997 AM6)
Classification: Main-belt Asteroid          SPK-ID: 2023637
Ephemeris | Orbit Diagram | Orbital Elements | Physical Parameters | Discovery Circumstances ]

[ show orbit diagram ]
Orbital Elements at Epoch 2457000.5 (2014-Dec-09.0) TDB
Reference: JPL 10 (heliocentric ecliptic J2000)
 Element Value Uncertainty (1-sigma)   Units 
e .08338883837808954 6.2342e-08  
a 2.306321862341042 1.4871e-08 AU
q 2.11400036131443 1.4238e-07 AU
i 7.850635306002822 5.2049e-06 deg
node 101.3941359573628 5.5675e-05 deg
peri 314.9250214392365 6.8425e-05 deg
M 83.54881794845755 3.9777e-05 deg
tp 2456703.595958230091
(2014-Feb-15.09595823)
0.0001413 JED
period 1279.317381882126
3.50
1.2373e-05
3.388e-08
d
yr
n .2814000693638427 2.7216e-09 deg/d
Q 2.498643363367654 1.6111e-08 AU
  Orbit Determination Parameters
   # obs. used (total)      583  
   data-arc span      6657 days (18.23 yr)  
   first obs. used      1997-01-04  
   last obs. used      2015-03-28  
   planetary ephem.      DE431  
   SB-pert. ephem.      SB431-BIG16  
   condition code      0  
   fit RMS      .59682  
   data source      ORB  
   producer      Otto Matic  
   solution date      2015-Apr-07 17:15:15  

Additional Information
 Earth MOID = 1.13428 AU 
 T_jup = 3.571 
[ show covariance matrix ]

Ephemeris | Orbit Diagram | Orbital Elements | Physical Parameters | Discovery Circumstances ]

Physical Parameter Table
Parameter Symbol Value Units Sigma Reference Notes
absolute magnitude H 15.4 mag n/a MPO319379  

23637 (1997 AM6)          Discovered 1997-Jan-04 by Beijing Schmidt CCD Asteroid Program at Xinglong
Reference: 20010408/Numbers.arcLast Updated: 2004-04-19

Alternate Designations
 1997 AM6 = 1998 MS4 = 1999 TY96 
Ephemeris | Orbit Diagram | Orbital Elements | Physical Parameters | Discovery Circumstances ]
ABOUT SSD CREDITS/AWARDS PRIVACY/COPYRIGHT GLOSSARY LINKS
FirstGov 2015-Apr-26 11:34 UT
(server date/time)  
NASA Home Page
Site Manager:   Ryan S. Park
Webmaster  Alan B. Chamberlin